COSMOS 627

Satellite information

Favourite Embed

Satellite Type and Status

PAYLOADIN ORBIT

Key statistics

Satellite COSMOS 627 at a glance.

Uptime

18984

Days in orbit

Revolutions

≈ 13.7

Per day

Orbit

LEO

Low Earth Orbit

Inclination

83.0

Latest

Satellite identification and parameters

Extended collection of information and parameters for COSMOS 627.

Object identification

Identified? True

Debris? False

Object name: COSMOS 627

International designator: 1973-109A

Object number (NORAD): 7008

Object ID (CCSDS): 7008

Country: COMMONWEALTH OF INDEPENDENT STATES (CIS)

Current information (Y/N): Y

RCS size: LARGE

Orbital parameters

Period: 104.875 minutes

Inclination: 82.9538 deg

SMA: 7366.735 km

Apoapsis: 1013.09 km

Periapsis: 964.109 km

RAAN: 254.0082 deg

Eccentricy: 0.0033245

Argument of periapsis: 114.74 deg

Mean anomaly: 260.2116 deg

Mean motion: 13.73062271 rev/day

Mean motion (dot): 0.00000074 rev/day2

B* drag term: 0.000063426 1/REarth

Two-line elements (TLE)

Creation date: Dec. 19, 2025, 9:06 p.m.

Reference frame: TEME

Reference center: EARTH

Epoch: Dec. 19, 2025, 4:04 p.m. UTC

TLE line 0: 0 COSMOS 627

TLE line 1: 1 7008U 73109A 25353.67004196 .00000074 00000-0 63426-4 0 9992

TLE line 2: 2 7008 82.9538 254.0082 0033245 114.7400 260.2116 13.73062271603253

Live tracking on map

Real-time ground track for satellite COSMOS 627.

In-orbit conjunctions

A list of the most updated potential collisions computed for object COSMOS 627.

Target Orbit TCA Probability of collision Miss distance Type
DELTA 1 DEB LEO 2025-11-20 05:22:25 0.0001150244 463.0 (m) DEBRIS
COSMOS 1275 DEB LEO 2024-12-10 12:01:58 0.0002147422 69.0 (m) DEBRIS
COSMOS 1275 DEB LEO 2024-08-20 04:32:24 0.0003528043 246.0 (m) DEBRIS

Associated space launch

The first soviet navigation system called Tsiklon consisted of Zaliv satellites in low earth orbit.

COSMOS 627 was lifted into orbit during the mission ‘Kosmos-3M | Zaliv 15’, on board a Kosmos-3M space rocket.

The launch took place on Dec. 29, 1973, 4:12 a.m. from 132/2.

For more information about the launch, click the button.

Launch to space Kosmos-3M | Zaliv 15
Kosmos-3M | Zaliv 15

Agency: N/A

Status: Launch Successful

Launch date: Dec. 29, 1973, 4:12 a.m. UTC

Rocket: Kosmos-3M

Launch pad: 132/2

Location: Plesetsk Cosmodrome, Russian Federation

...

Latest news about this satellite

There are no fresh news available about this satellite. Check back as we update our databases every day.


Newsletter sign-up

Weekly statistics, charts and insights to help you stay on top of the space industry.